Shao Shan 5 — VRKO9 — position and weather

sailwx.info

Track history (hours):
 
Tides and Currents Weather Stations Pressure Air Temp Water Temp Dewpoint Dewpoint Depression Visibility Wind Speed Wind Dir Waves Ship Positions

Shao Shan 5

Last reported at 2014-Oct-16 11:33 UTC. Time now 2014-Oct-23 03:55 UTC.
Position N 36°31' W 030°30'.

Length 225 m; draft 7.3 m.

Type: Cargo ship. MMSI: 477325700.

Date/timePositionNaut miles runAvg speedWind from/ knotsBaromVisibWave heightAir tempDewpointWater temp
2014-Oct-16 11:33N 36°31' W 030°30'1310.3
2014-Oct-16 10:18N 36°31' W 030°14'1910.4
2014-Oct-16 08:28N 36°31' W 029°50'7710.5
2014-Oct-16 01:09N 36°29' W 028°15'1710.4
2014-Oct-15 23:33N 36°29' W 027°55'1210.6
2014-Oct-15 22:23N 36°28' W 027°39'4611.9
2014-Oct-15 18:28N 36°28' W 026°41'1212.8
2014-Oct-15 17:34N 36°28' W 026°27'1312.8
2014-Oct-15 16:31N 36°27' W 026°10'1212.6
2014-Oct-15 15:33N 36°27' W 025°55'1312.8
2014-Oct-15 14:33N 36°26' W 025°39'1212.4
2014-Oct-15 13:33N 36°26' W 025°24'1212.2
2014-Oct-15 12:33N 36°26' W 025°09'1212.3
2014-Oct-15 11:33N 36°26' W 024°53'1212.5
2014-Oct-15 10:33N 36°26' W 024°38'1312.6
2014-Oct-15 09:33N 36°25' W 024°22'1212.4
2014-Oct-15 08:33N 36°25' W 024°07'1212.2
2014-Oct-15 07:33N 36°25' W 023°51'  
2014-Oct-11 23:15N 35°59' W 005°28'7 9.6
2014-Oct-11 22:33N 36°01' W 005°20'21912.8
2014-Oct-11 05:29N 36°32' W 000°51'1413.0
2014-Oct-11 04:24N 36°33' W 000°34'2512.9
2014-Oct-11 02:27N 36°37' W 000°03'1212.5
2014-Oct-11 01:31N 36°38' E 000°12'2512.0
2014-Oct-10 23:28N 36°43' E 000°42'4511.6
2014-Oct-10 19:33N 36°48' E 001°38'1212.1
2014-Oct-10 18:33N 36°49' E 001°53'3711.9
2014-Oct-10 15:27N 36°55' E 002°39'1112.0
2014-Oct-10 14:33N 36°56' E 002°52'1312.2
2014-Oct-10 13:31N 36°58' E 003°08'2311.8
2014-Oct-10 11:33N 37°02' E 003°36'1212.1
2014-Oct-10 10:33N 37°03' E 003°51'1312.6
2014-Oct-10 09:33N 37°05' E 004°07'3113.0
2014-Oct-10 07:12N 37°09' E 004°45'1513.4
2014-Oct-10 06:04N 37°11' E 005°04'6913.8
2014-Oct-10 01:04N 37°21' E 006°30'4713.1
2014-Oct-09 21:31N 37°27' E 007°28'1212.7
2014-Oct-09 20:32N 37°29' E 007°43'1413.3
2014-Oct-09 19:29N 37°31' E 008°01'1313.7
2014-Oct-09 18:32N 37°33' E 008°17'1313.4
2014-Oct-09 17:33N 37°34' E 008°33'1313.2
2014-Oct-09 16:33N 37°36' E 008°50'1312.7
2014-Oct-09 15:34N 37°37' E 009°06'1312.6
2014-Oct-09 14:33N 37°38' E 009°22'1312.7
2014-Oct-09 13:33N 37°38' E 009°38'1312.8
2014-Oct-09 12:33N 37°39' E 009°54'1312.6
2014-Oct-09 11:32N 37°39' E 010°10'1212.6
2014-Oct-09 10:33N 37°37' E 010°25'1312.7
2014-Oct-09 09:32N 37°34' E 010°41'9513.3
2014-Oct-09 02:22N 37°03' E 012°34'1413.1
2014-Oct-09 01:16N 36°59' E 012°52'1013.2
2014-Oct-09 00:30N 36°57' E 013°04'1213.0
2014-Oct-08 23:33N 36°54' E 013°19'1412.9
2014-Oct-08 22:28N 36°51' E 013°36'1212.8
2014-Oct-08 21:33N 36°48' E 013°50'1312.6
2014-Oct-08 20:33N 36°45' E 014°06'1312.5
2014-Oct-08 19:33N 36°42' E 014°21'1312.6
2014-Oct-08 18:33N 36°39' E 014°36'38013.1
2014-Oct-07 13:29N 36°21' E 022°29'2512.4
2014-Oct-07 11:30N 36°25' E 022°59'4012.7
2014-Oct-07 08:23N 36°39' E 023°45'1113.6
2014-Oct-07 07:33N 36°45' E 023°57'1413.5
2014-Oct-07 06:33N 36°55' E 024°08'1412.8
2014-Oct-07 05:29N 37°07' E 024°15'1313.6
2014-Oct-07 04:34N 37°20' E 024°15'1212.4
2014-Oct-07 03:33N 37°31' E 024°22'1313.4
2014-Oct-07 02:33N 37°42' E 024°31'5212.8
2014-Oct-06 22:29N 38°24' E 025°10'  
Track history (hours):
 
Tides and Currents Weather Stations Pressure Air Temp Water Temp Dewpoint Dewpoint Depression Visibility Wind Speed Wind Dir Waves Ship Positions

Shao Shan 5

Last reported at 2014-Oct-16 11:33 UTC. Time now 2014-Oct-23 03:55 UTC.
Position N 36°31' W 030°30'.

Length 225 m; draft 7.3 m.

Type: Cargo ship. MMSI: 477325700.

Date/timePositionNaut miles runAvg speedWind from/ knotsBaromVisibWave heightAir tempDewpointWater temp
2014-Oct-16 11:33N 36°31' W 030°30'1310.3
2014-Oct-16 10:18N 36°31' W 030°14'1910.4
2014-Oct-16 08:28N 36°31' W 029°50'7710.5
2014-Oct-16 01:09N 36°29' W 028°15'1710.4
2014-Oct-15 23:33N 36°29' W 027°55'1210.6
2014-Oct-15 22:23N 36°28' W 027°39'4611.9
2014-Oct-15 18:28N 36°28' W 026°41'1212.8
2014-Oct-15 17:34N 36°28' W 026°27'1312.8
2014-Oct-15 16:31N 36°27' W 026°10'1212.6
2014-Oct-15 15:33N 36°27' W 025°55'1312.8
2014-Oct-15 14:33N 36°26' W 025°39'1212.4
2014-Oct-15 13:33N 36°26' W 025°24'1212.2
2014-Oct-15 12:33N 36°26' W 025°09'1212.3
2014-Oct-15 11:33N 36°26' W 024°53'1212.5
2014-Oct-15 10:33N 36°26' W 024°38'1312.6
2014-Oct-15 09:33N 36°25' W 024°22'1212.4
2014-Oct-15 08:33N 36°25' W 024°07'1212.2
2014-Oct-15 07:33N 36°25' W 023°51'  
2014-Oct-11 23:15N 35°59' W 005°28'7 9.6
2014-Oct-11 22:33N 36°01' W 005°20'21912.8
2014-Oct-11 05:29N 36°32' W 000°51'1413.0
2014-Oct-11 04:24N 36°33' W 000°34'2512.9
2014-Oct-11 02:27N 36°37' W 000°03'1212.5
2014-Oct-11 01:31N 36°38' E 000°12'2512.0
2014-Oct-10 23:28N 36°43' E 000°42'4511.6
2014-Oct-10 19:33N 36°48' E 001°38'1212.1
2014-Oct-10 18:33N 36°49' E 001°53'3711.9
2014-Oct-10 15:27N 36°55' E 002°39'1112.0
2014-Oct-10 14:33N 36°56' E 002°52'1312.2
2014-Oct-10 13:31N 36°58' E 003°08'2311.8
2014-Oct-10 11:33N 37°02' E 003°36'1212.1
2014-Oct-10 10:33N 37°03' E 003°51'1312.6
2014-Oct-10 09:33N 37°05' E 004°07'3113.0
2014-Oct-10 07:12N 37°09' E 004°45'1513.4
2014-Oct-10 06:04N 37°11' E 005°04'6913.8
2014-Oct-10 01:04N 37°21' E 006°30'4713.1
2014-Oct-09 21:31N 37°27' E 007°28'1212.7
2014-Oct-09 20:32N 37°29' E 007°43'1413.3
2014-Oct-09 19:29N 37°31' E 008°01'1313.7
2014-Oct-09 18:32N 37°33' E 008°17'1313.4
2014-Oct-09 17:33N 37°34' E 008°33'1313.2
2014-Oct-09 16:33N 37°36' E 008°50'1312.7
2014-Oct-09 15:34N 37°37' E 009°06'1312.6
2014-Oct-09 14:33N 37°38' E 009°22'1312.7
2014-Oct-09 13:33N 37°38' E 009°38'1312.8
2014-Oct-09 12:33N 37°39' E 009°54'1312.6
2014-Oct-09 11:32N 37°39' E 010°10'1212.6
2014-Oct-09 10:33N 37°37' E 010°25'1312.7
2014-Oct-09 09:32N 37°34' E 010°41'9513.3
2014-Oct-09 02:22N 37°03' E 012°34'1413.1
2014-Oct-09 01:16N 36°59' E 012°52'1013.2
2014-Oct-09 00:30N 36°57' E 013°04'1213.0
2014-Oct-08 23:33N 36°54' E 013°19'1412.9
2014-Oct-08 22:28N 36°51' E 013°36'1212.8
2014-Oct-08 21:33N 36°48' E 013°50'1312.6
2014-Oct-08 20:33N 36°45' E 014°06'1312.5
2014-Oct-08 19:33N 36°42' E 014°21'1312.6
2014-Oct-08 18:33N 36°39' E 014°36'38013.1
2014-Oct-07 13:29N 36°21' E 022°29'2512.4
2014-Oct-07 11:30N 36°25' E 022°59'4012.7
2014-Oct-07 08:23N 36°39' E 023°45'1113.6
2014-Oct-07 07:33N 36°45' E 023°57'1413.5
2014-Oct-07 06:33N 36°55' E 024°08'1412.8
2014-Oct-07 05:29N 37°07' E 024°15'1313.6
2014-Oct-07 04:34N 37°20' E 024°15'1212.4
2014-Oct-07 03:33N 37°31' E 024°22'1313.4
2014-Oct-07 02:33N 37°42' E 024°31'5212.8
2014-Oct-06 22:29N 38°24' E 025°10'  

Dump ship's entire track history